Location: Las Vegas
(36.1750°N, 115.1360°W)
Time: 18:59:54
(UTC-07:00)

Amateur Radio Satellites - All Passes

Search period start: 27 June 2017 18:29
Search period end: 28 June 2017 18:29
Location: Las Vegas, 36.1750°N, 115.1360°W

Satellite Date Start Highest point End Downlink Frequencies (MHz)
Time Altitude Azimuth
XW-2D 27 Jun 18:30:23 18:34:01 41° 261° (W) 18:37:39 145.860 - 145.880
XW-2B 27 Jun 18:39:38 18:43:07 32° 262° (W) 18:46:36 145.730 - 145.750
CUBESAT XI-V 27 Jun 18:40:50 18:42:38 12° 295° (WNW) 18:44:27 437.345
LilacSat-2 27 Jun 18:41:59 18:45:22 29° 263° (W) 18:48:45 437.200
CUTE 1.7 + AOD 2 27 Jun 18:47:19 18:51:12 35° 73° (ENE) 18:55:04 437.475
XW-2C 27 Jun 18:55:54 18:58:49 21° 265° (W) 19:01:45 145.795 - 145.815
RS-15 27 Jun 19:01:20 19:10:52 29° 102° (ESE) 19:20:33 29.354- 29.394
KAITUO 1B 27 Jun 19:03:55 19:06:49 21° 265° (W) 19:09:44 145.475/437.950
AO-85 27 Jun 19:04:29 19:07:47 23° 113° (ESE) 19:10:59 145.980
AAUSAT CUBESAT 2 27 Jun 19:10:00 19:12:46 18° 69° (ENE) 19:15:33 437.432
BEESAT 3 27 Jun 19:14:34 19:17:05 16° 110° (ESE) 19:19:38 437.485
CUBEBUG 2 27 Jun 19:23:17 19:27:42 48° 73° (ENE) 19:32:13 437.445
Oscar 11 27 Jun 19:31:46 19:33:32 12° 66° (ENE) 19:35:18 .
STARS 27 Jun 19:32:25 19:33:55 12° 296° (WNW) 19:35:26 437.465
PCSat 27 Jun 19:35:09 19:38:18 15° 47° (NE) 19:41:26 145.827
ZACube-1 27 Jun 19:41:52 19:45:34 25° 70° (ENE) 19:49:19 437.345
XW-2A 27 Jun 19:46:17 19:49:37 49° 260° (W) 19:52:59 145.665 - 145.685
UWE-3 27 Jun 19:51:39 19:56:09 58° 75° (ENE) 20:00:45 435.000/436.395/437.385
O/OREOS (USA 219) 27 Jun 20:00:04 20:02:52 16° 100° (E) 20:05:41 437.305
SEEDS 27 Jun 20:00:31 20:04:33 46° 261° (W) 20:08:36 437.485
STRAND 1 27 Jun 20:11:33 20:16:44 88° 104° (ESE) 20:21:52 437.568
NO-84 27 Jun 20:13:05 20:16:35 41° 127° (SE) 20:20:22 435.350 FM
HO-68 27 Jun 20:15:13 20:21:40 35° 262° (W) 20:28:10 435.675
BEESAT 2 27 Jun 20:18:11 20:21:38 29° 113° (ESE) 20:25:07 435.950
CUTE 1.7 + AOD 2 27 Jun 20:24:28 20:27:06 16° 267° (W) 20:29:45 437.475
YUBILEINY 27 Jun 20:38:56 20:45:56 28° 83° (E) 20:52:58 435.215
AO-73 27 Jun 20:40:24 20:44:56 80° 257° (WSW) 20:49:32 145.935
AAUSAT CUBESAT 2 27 Jun 20:44:18 20:47:58 31° 263° (W) 20:51:38 437.432
AO-85 27 Jun 20:44:39 20:48:03 25° 307° (NW) 20:51:22 145.980
BEESAT 3 27 Jun 20:50:41 20:54:20 35° 305° (NW) 20:58:03 437.485
CUBEBUG 2 27 Jun 21:02:03 21:04:33 14° 269° (W) 21:07:06 437.445
Oscar 11 27 Jun 21:04:56 21:09:10 53° 260° (W) 21:13:25 .
RS-15 27 Jun 21:10:01 21:22:08 76° 301° (WNW) 21:34:35 29.354- 29.394
PCSat 27 Jun 21:16:52 21:22:18 77° 245° (WSW) 21:27:41 145.827
ZACube-1 27 Jun 21:17:50 21:21:42 27° 264° (W) 21:25:37 437.345
UWE-3 27 Jun 21:31:19 21:32:56 12° 270° (W) 21:34:33 435.000/436.395/437.385
O/OREOS (USA 219) 27 Jun 21:37:38 21:41:54 39° 295° (WNW) 21:46:10 437.305
TIGRISAT 27 Jun 21:45:29 21:48:37 18° 93° (E) 21:51:41 435.000
DELFI C3 27 Jun 21:47:08 21:51:02 67° 259° (W) 21:54:55 145.870
NO-84 27 Jun 21:51:06 21:54:18 24° 326° (NW) 21:57:41 435.350 FM
M-CUBED/EXP-1 PRIME 27 Jun 21:52:04 21:55:28 29° 103° (ESE) 21:59:07 437.505
STRAND 1 27 Jun 21:54:34 21:55:06 10° 299° (WNW) 21:55:39 437.568
BEESAT 2 27 Jun 21:56:16 21:59:22 21° 309° (NW) 22:02:31 435.950
FO-29 27 Jun 21:57:28 22:05:06 50° 98° (E) 22:12:25 435.910
SO-50 27 Jun 22:02:13 22:06:06 27° 52° (NE) 22:09:57 436.795
EO-88 27 Jun 22:07:47 22:11:22 52° 260° (W) 22:14:58 145.990 - 145.960
ESTCUBE 1 27 Jun 22:13:47 22:15:59 14° 65° (ENE) 22:18:11 437.505/2401.250
LO-87 27 Jun 22:22:35 22:25:24 23° 71° (ENE) 22:28:16 145.935 - 145.965
PRISM 27 Jun 22:25:32 22:29:34 54° 101° (E) 22:33:36 437.425
UNISAT 6 27 Jun 22:27:14 22:31:49 59° 100° (E) 22:36:16 437.425
YUBILEINY 27 Jun 22:33:31 22:42:05 57° 281° (W) 22:50:48 435.215
AIST 2D 27 Jun 23:14:41 23:17:13 19° 95° (E) 23:19:45 435.315
EO-79 27 Jun 23:20:54 23:22:01 11° 91° (E) 23:23:09 145.935-145.965
TIGRISAT 27 Jun 23:21:08 23:25:24 37° 288° (WNW) 23:29:33 435.000
M-CUBED/EXP-1 PRIME 27 Jun 23:26:58 23:29:44 19° 294° (WNW) 23:32:39 437.505
RS-15 27 Jun 23:27:36 23:37:10 25° 328° (NNW) 23:46:49 29.354- 29.394
DUCHIFAT 1 27 Jun 23:31:19 23:32:46 12° 92° (E) 23:34:14 145.980
VELOX 1 27 Jun 23:38:28 23:42:05 26° 70° (ENE) 23:45:43 145.980
SPROUT 27 Jun 23:39:01 23:42:39 28° 71° (ENE) 23:46:18 437.525
NANOSAT C BR1 27 Jun 23:40:06 23:42:57 17° 94° (E) 23:45:46 145.865
SO-50 27 Jun 23:42:34 23:46:29 29° 247° (WSW) 23:50:25 436.795
FO-29 27 Jun 23:42:55 23:49:42 33° 295° (WNW) 23:56:21 435.910
ESTCUBE 1 27 Jun 23:47:56 23:52:18 51° 260° (W) 23:56:42 437.505/2401.250
DX 1 27 Jun 23:51:49 23:53:09 11° 64° (ENE) 23:54:30 434.975-435.025
LO-87 27 Jun 23:56:23 23:58:46 17° 265° (W) 00:01:11 145.935 - 145.965
PRISM 28 Jun 00:03:13 00:04:20 11° 295° (WNW) 00:05:28 437.425
UNISAT 6 28 Jun 00:06:01 00:07:56 12° 296° (WNW) 00:09:50 437.425
POLYITAN 1 28 Jun 00:19:19 00:23:32 58° 100° (E) 00:27:43 437.675
BUGSAT 1 28 Jun 00:29:25 00:32:03 16° 93° (E) 00:34:40 437.445
QB50P2 28 Jun 00:30:16 00:34:34 88° 105° (ESE) 00:38:49 145.880/145.840
AIST 2D 28 Jun 00:47:45 00:50:18 19° 289° (WNW) 00:52:50 435.315
50 SAT 28 Jun 00:52:32 00:55:53 87° 258° (WSW) 00:59:16 437.505
EO-79 28 Jun 00:53:54 00:58:03 52° 286° (WNW) 01:02:10 145.935-145.965
DUCHIFAT 1 28 Jun 01:04:34 01:08:41 49° 286° (WNW) 01:12:45 145.980
Oscar 19 28 Jun 01:13:16 01:17:00 20° 94° (E) 01:20:42 437.125/150
NANOSAT C BR1 28 Jun 01:14:53 01:18:42 33° 288° (WNW) 01:22:30 145.865
VELOX 1 28 Jun 01:14:55 01:18:26 24° 264° (W) 01:21:59 145.980
SPROUT 28 Jun 01:15:16 01:18:30 21° 265° (W) 01:21:45 437.525
DX 1 28 Jun 01:24:33 01:28:47 58° 259° (W) 01:33:04 434.975-435.025
UKube-1 28 Jun 01:35:54 01:40:09 65° 259° (W) 01:44:26 .
RS-15 28 Jun 01:49:48 01:56:20 15° 4° (N) 02:02:47 29.354- 29.394
POLYITAN 1 28 Jun 01:57:38 01:58:45 11° 296° (WNW) 01:59:53 437.675
BUGSAT 1 28 Jun 02:03:36 02:07:30 35° 288° (WNW) 02:11:20 437.445
ITUPSAT 1 28 Jun 02:22:08 02:26:25 33° 70° (ENE) 02:30:43 437.325
Gurwin Techsat 1B 28 Jun 02:27:46 02:33:05 70° 102° (ESE) 02:38:23 435.225
BEESAT 28 Jun 02:29:59 02:34:27 41° 72° (ENE) 02:38:57 436.000
NO-84 28 Jun 02:49:29 02:52:10 16° 29° (NNE) 02:54:50 435.350 FM
Oscar 19 28 Jun 02:51:38 02:56:25 41° 289° (WNW) 03:01:11 437.125/150
AO-7 28 Jun 03:10:00 03:16:49 27° 96° (E) 03:23:34 .
MOZHAYETS 4 28 Jun 03:12:50 03:17:27 74° 75° (ENE) 03:22:05
ITAMSAT 1 28 Jun 03:35:14 03:40:02 36° 98° (E) 03:44:47 435.822/435.867
AO-85 28 Jun 03:38:35 03:40:06 12° 47° (NE) 03:41:38 145.980
ITUPSAT 1 28 Jun 04:00:30 04:04:14 22° 265° (W) 04:08:00 437.325
CUBESAT XI-V 28 Jun 04:01:44 04:06:06 42° 73° (ENE) 04:10:27 437.345
RS-15 28 Jun 04:04:08 04:14:40 32° 39° (NE) 04:24:44 29.354- 29.394
BEESAT 28 Jun 04:09:07 04:12:21 18° 266° (W) 04:15:36 436.000
Gurwin Techsat 1B 28 Jun 04:09:47 04:12:23 14° 298° (WNW) 04:14:59 435.225
KKS-1 28 Jun 04:25:51 04:30:09 53° 73° (ENE) 04:34:29 437.445
NO-84 28 Jun 04:25:59 04:30:23 81° 46° (NE) 04:34:37 435.350 FM
STARS 28 Jun 04:47:37 04:51:38 37° 72° (ENE) 04:55:42 437.465
AO-7 28 Jun 05:01:44 05:09:56 61° 292° (WNW) 05:18:05 .
BEESAT 3 28 Jun 05:09:28 05:13:23 52° 57° (ENE) 05:17:14 437.485
ITAMSAT 1 28 Jun 05:15:05 05:19:16 25° 293° (WNW) 05:23:26 435.822/435.867
AO-85 28 Jun 05:16:41 05:20:51 71° 242° (WSW) 05:25:19 145.980
DOVE 4 28 Jun 05:19:48 05:23:37 21° 94° (E) 05:27:30 437.250
CUBESAT XI-V 28 Jun 05:40:47 05:43:37 16° 267° (W) 05:46:28 437.345
STRAND 1 28 Jun 05:50:26 05:51:19 10° 61° (ENE) 05:52:13 437.568
XW-2F 28 Jun 06:00:07 06:02:37 17° 94° (E) 06:05:05 145.980 - 146.000
KKS-1 28 Jun 06:05:23 06:06:59 12° 268° (W) 06:08:34 437.445
XW-2D 28 Jun 06:05:51 06:08:49 22° 95° (E) 06:11:46 145.860 - 145.880
NO-84 28 Jun 06:06:06 06:07:21 11° 241° (WSW) 06:08:34 435.350 FM
O/OREOS (USA 219) 28 Jun 06:11:31 06:14:55 21° 61° (ENE) 06:18:18 437.305
XW-2B 28 Jun 06:14:42 06:17:57 27° 96° (E) 06:21:10 145.730 - 145.750
ISS 28 Jun 06:14:44 06:16:55 17° 129° (SE) 06:19:08 437.550
BEESAT 2 28 Jun 06:15:08 06:19:12 83° 243° (WSW) 06:23:12 435.950
RS-15 28 Jun 06:16:28 06:28:33 81° 245° (WSW) 06:39:59 29.354- 29.394
LilacSat-2 28 Jun 06:17:27 06:20:53 32° 97° (E) 06:24:17 437.200
STARS 28 Jun 06:25:17 06:28:04 17° 266° (W) 06:30:53 437.465
XW-2C 28 Jun 06:30:03 06:33:41 45° 99° (E) 06:37:15 145.795 - 145.815
KAITUO 1B 28 Jun 06:36:45 06:40:16 41° 99° (E) 06:43:45 145.475/437.950
CUTE-I 28 Jun 06:38:54 06:44:06 48° 100° (E) 06:49:17 437.470
BEESAT 3 28 Jun 06:49:34 06:50:26 11° 253° (WSW) 06:51:19 437.485
Tancredo 1 28 Jun 06:54:43 06:57:41 62° 320° (NW) 07:00:41 437.200
YUBILEINY 28 Jun 06:56:09 06:56:57 10° 60° (ENE) 06:57:44 435.215
DOVE 4 28 Jun 06:56:39 07:01:20 40° 287° (WNW) 07:06:11 437.250
AO-7 28 Jun 06:58:23 07:00:58 12° 312° (NW) 07:03:33 .
NUDT-PHONESAT 28 Jun 07:07:57 07:11:38 71° 284° (WNW) 07:15:16 437.300
XW-2A 28 Jun 07:12:42 07:13:36 11° 93° (E) 07:14:30 145.665 - 145.685
CUBEBUG 2 28 Jun 07:18:45 07:20:50 13° 91° (E) 07:22:53 437.445
STRAND 1 28 Jun 07:24:34 07:29:42 86° 254° (WSW) 07:34:54 437.568
XW-2F 28 Jun 07:33:37 07:36:43 25° 288° (WNW) 07:39:47 145.980 - 146.000
XW-2D 28 Jun 07:40:06 07:42:51 20° 290° (WNW) 07:45:36 145.860 - 145.880
HO-68 28 Jun 07:44:55 07:51:56 53° 101° (E) 07:58:52 435.675
UWE-3 28 Jun 07:45:36 07:48:06 15° 92° (E) 07:50:34 435.000/436.395/437.385
SEEDS 28 Jun 07:46:52 07:50:38 32° 97° (E) 07:54:21 437.485
XW-2B 28 Jun 07:49:32 07:51:54 16° 291° (WNW) 07:54:15 145.730 - 145.750
ISS 28 Jun 07:50:06 07:53:11 38° 324° (NW) 07:56:17 437.550
O/OREOS (USA 219) 28 Jun 07:50:23 07:54:20 31° 256° (WSW) 07:58:16 437.305
LilacSat-2 28 Jun 07:52:49 07:54:50 14° 292° (WNW) 07:56:51 437.200
XW-2C 28 Jun 08:06:54 08:07:24 10° 294° (WNW) 08:07:54 145.795 - 145.815
FO-29 28 Jun 08:09:29 08:12:57 15° 57° (ENE) 08:16:38 435.910
CUTE 1.7 + AOD 2 28 Jun 08:09:56 08:14:09 77° 282° (WNW) 08:18:19 437.475
KAITUO 1B 28 Jun 08:12:53 08:13:51 11° 293° (WNW) 08:14:47 145.475/437.950
CUTE-I 28 Jun 08:19:58 08:23:44 20° 295° (WNW) 08:27:30 437.470
AAUSAT CUBESAT 2 28 Jun 08:28:22 08:32:19 45° 99° (E) 08:36:16 437.432
AO-73 28 Jun 08:31:51 08:35:22 23° 95° (E) 08:38:47 145.935
RS-15 28 Jun 08:32:32 08:38:54 16° 263° (W) 08:45:09 29.354- 29.394
M-CUBED/EXP-1 PRIME 28 Jun 08:36:49 08:39:10 19° 66° (ENE) 08:41:30 437.505
TIGRISAT 28 Jun 08:42:38 08:44:35 13° 64° (ENE) 08:46:33 435.000
XW-2A 28 Jun 08:43:24 08:46:26 31° 287° (WNW) 08:49:26 145.665 - 145.685
YUBILEINY 28 Jun 08:46:50 08:55:37 65° 81° (E) 09:04:17 435.215
CUBEBUG 2 28 Jun 08:53:12 08:57:45 52° 286° (WNW) 09:02:09 437.445
Oscar 11 28 Jun 08:54:51 08:58:44 32° 97° (E) 09:02:36 .
ZACube-1 28 Jun 09:08:06 09:12:31 73° 101° (E) 09:16:48 437.345
PRISM 28 Jun 09:12:28 09:15:50 26° 70° (ENE) 09:19:13 437.425
UWE-3 28 Jun 09:20:27 09:24:46 43° 287° (WNW) 09:28:56 435.000/436.395/437.385
UNISAT 6 28 Jun 09:23:02 09:27:16 37° 72° (ENE) 09:31:34 437.425
SEEDS 28 Jun 09:23:15 09:26:02 18° 292° (WNW) 09:28:48 437.485
DELFI C3 28 Jun 09:27:31 09:30:12 18° 94° (E) 09:32:54 145.870
HO-68 28 Jun 09:33:26 09:39:12 27° 298° (WNW) 09:44:58 435.675
EO-88 28 Jun 09:40:14 09:42:22 15° 94° (E) 09:44:29 145.990 - 145.960
FO-29 28 Jun 09:50:47 09:56:52 85° 259° (WSW) 10:03:49 435.910
AAUSAT CUBESAT 2 28 Jun 10:05:32 10:07:22 13° 293° (WNW) 10:09:10 437.432
AO-73 28 Jun 10:07:52 10:11:30 26° 290° (WNW) 10:15:03 145.935
M-CUBED/EXP-1 PRIME 28 Jun 10:11:17 10:13:33 17° 259° (W) 10:15:48 437.505
PCSat 28 Jun 10:14:09 10:18:00 20° 105° (ESE) 10:21:51 145.827
TIGRISAT 28 Jun 10:16:08 10:20:40 61° 259° (W) 10:25:19 435.000
Oscar 11 28 Jun 10:31:37 10:34:37 19° 292° (WNW) 10:37:35 .
YUBILEINY 28 Jun 10:45:04 10:51:34 24° 278° (W) 10:58:05 435.215
PRISM 28 Jun 10:48:03 10:51:03 20° 264° (W) 10:54:05 437.425
UNISAT 6 28 Jun 11:00:50 11:04:03 19° 267° (W) 11:07:19 437.425
DELFI C3 28 Jun 11:01:35 11:04:58 28° 288° (WNW) 11:08:20 145.870
POLYITAN 1 28 Jun 11:09:11 11:12:56 30° 71° (ENE) 11:16:41 437.675
EO-88 28 Jun 11:12:56 11:16:02 27° 288° (WNW) 11:19:08 145.990 - 145.960
AIST 2D 28 Jun 11:18:07 11:21:40 88° 257° (WSW) 11:25:14 435.315
QB50P2 28 Jun 11:19:52 11:23:55 44° 73° (ENE) 11:28:00 145.880/145.840
LO-87 28 Jun 11:24:32 11:28:00 40° 99° (E) 11:31:26 145.935 - 145.965
FO-29 28 Jun 11:42:22 11:43:05 10° 276° (W) 11:43:49 435.910
ESTCUBE 1 28 Jun 11:42:56 11:47:08 39° 99° (E) 11:51:19 437.505/2401.250
EO-79 28 Jun 11:42:58 11:47:12 78° 77° (ENE) 11:51:29 145.935-145.965
DUCHIFAT 1 28 Jun 11:52:58 11:57:11 81° 78° (ENE) 12:01:28 145.980
PCSat 28 Jun 11:55:46 12:00:58 48° 301° (WNW) 12:06:14 145.827
NANOSAT C BR1 28 Jun 12:03:22 12:07:35 66° 260° (W) 12:11:49 145.865
JUGNU 28 Jun 12:11:10 12:14:12 14° 173° (S) 12:17:16 437.505
SO-50 28 Jun 12:15:26 12:17:59 15° 109° (ESE) 12:20:32 436.795
Oscar 19 28 Jun 12:27:34 12:31:35 24° 67° (ENE) 12:35:35 437.125/150
ISS 28 Jun 12:44:45 12:46:09 12° 23° (NNE) 12:47:34 437.550
POLYITAN 1 28 Jun 12:45:37 12:48:42 19° 265° (W) 12:51:49 437.675
BUGSAT 1 28 Jun 12:49:46 12:53:53 76° 259° (W) 12:58:05 437.445
QB50P2 28 Jun 12:57:54 12:59:53 13° 268° (W) 13:01:54 145.880/145.840
LO-87 28 Jun 13:00:07 13:01:00 11° 293° (WNW) 13:01:54 145.935 - 145.965
SPROUT 28 Jun 13:02:10 13:06:29 79° 101° (E) 13:10:47 437.525
VELOX 1 28 Jun 13:06:17 13:10:43 77° 102° (ESE) 13:15:09 145.980
DX 1 28 Jun 13:15:30 13:19:17 28° 97° (E) 13:23:03 434.975-435.025
ESTCUBE 1 28 Jun 13:20:41 13:23:36 17° 293° (WNW) 13:26:31 437.505/2401.250
Tancredo 1 28 Jun 13:21:04 13:23:55 36° 36° (NE) 13:26:46 437.200
UKube-1 28 Jun 13:25:55 13:29:27 24° 96° (E) 13:32:57 .
Gurwin Techsat 1B 28 Jun 13:46:05 13:51:24 85° 75° (ENE) 13:56:44 435.225
50 SAT 28 Jun 13:49:58 13:53:19 55° 285° (WNW) 13:56:39 437.505
SO-50 28 Jun 13:53:35 13:58:00 49° 303° (WNW) 14:02:25 436.795
JUGNU 28 Jun 13:58:59 14:02:26 16° 183° (S) 14:05:54 437.505
SRMSAT 28 Jun 14:03:31 14:05:29 12° 168° (SSE) 14:07:26 437.500
Oscar 19 28 Jun 14:05:55 14:10:39 37° 262° (W) 14:15:24 437.125/150
AO-7 28 Jun 14:06:21 14:13:19 31° 60° (ENE) 14:20:19 .
ISS 28 Jun 14:19:50 14:23:08 73° 41° (NE) 14:26:25 437.550
BEESAT 28 Jun 14:34:36 14:36:36 12° 92° (E) 14:38:34 436.000
ITAMSAT 1 28 Jun 14:50:28 14:55:20 42° 71° (ENE) 15:00:15 435.822/435.867
DX 1 28 Jun 14:51:54 14:55:17 22° 291° (WNW) 14:58:40 434.975-435.025
Tancredo 1 28 Jun 14:57:23 14:59:15 15° 231° (SW) 15:01:07 437.200
UKube-1 28 Jun 15:01:49 15:05:21 25° 291° (WNW) 15:08:54 .
MOZHAYETS 4 28 Jun 15:11:20 15:14:45 20° 95° (E) 15:18:08
JUGNU 28 Jun 15:49:07 15:50:39 11° 193° (SSW) 15:52:11 437.505
SRMSAT 28 Jun 15:50:21 15:53:51 16° 178° (S) 15:57:20 437.500
AO-7 28 Jun 15:57:30 16:05:36 56° 257° (WSW) 16:13:47 .
ITUPSAT 1 28 Jun 16:02:18 16:07:04 72° 285° (WNW) 16:11:49 437.325
CUBESAT XI-V 28 Jun 16:02:37 16:04:37 13° 92° (E) 16:06:36 437.345
BEESAT 28 Jun 16:10:00 16:14:42 57° 286° (WNW) 16:19:20 436.000
KKS-1 28 Jun 16:21:15 16:23:10 12° 92° (E) 16:25:04 437.445
DOVE 4 28 Jun 16:24:45 16:26:30 12° 65° (ENE) 16:28:16 437.250
ITAMSAT 1 28 Jun 16:31:10 16:34:56 20° 266° (W) 16:38:44 435.822/435.867
MOZHAYETS 4 28 Jun 16:47:51 16:51:55 32° 289° (WNW) 16:55:58
XW-2B 28 Jun 16:56:05 16:56:32 10° 66° (ENE) 16:56:58 145.730 - 145.750
LilacSat-2 28 Jun 16:58:23 16:59:59 12° 67° (ENE) 17:01:35 437.200
XW-2C 28 Jun 17:09:40 17:12:03 16° 69° (ENE) 17:14:27 145.795 - 145.815
KAITUO 1B 28 Jun 17:15:25 17:17:25 14° 68° (ENE) 17:19:25 145.475/437.950
CUBESAT XI-V 28 Jun 17:37:47 17:42:15 52° 286° (WNW) 17:46:43 437.345
SRMSAT 28 Jun 17:39:18 17:42:14 14° 188° (S) 17:45:09 437.500
NUDT-PHONESAT 28 Jun 17:44:26 17:47:48 31° 73° (ENE) 17:51:09 437.300
KKS-1 28 Jun 17:55:37 17:59:58 51° 287° (WNW) 18:04:18 437.445
CUTE-I 28 Jun 17:57:58 18:03:12 61° 73° (ENE) 18:08:29 437.470
DOVE 4 28 Jun 17:59:42 18:03:42 47° 261° (W) 18:07:52 437.250
XW-2F 28 Jun 18:10:43 18:14:32 85° 258° (WSW) 18:18:22 145.980 - 146.000
HO-68 28 Jun 18:11:11 18:17:16 31° 64° (ENE) 18:23:21 435.675
STARS 28 Jun 18:15:11 18:19:38 77° 284° (WNW) 18:24:03 437.465
XW-2D 28 Jun 18:17:18 18:21:06 62° 260° (W) 18:24:55 145.860 - 145.880
